Time,TemperatureF,DewpointF,PressureIn,WindDirection,WindDirectionDegrees,WindSpeedMPH,WindSpeedGustMPH,Humidity,HourlyPrecipIn,Conditions,Clouds,dailyrainin,SoftwareType,DateUTC
2013-02-09 00:03:00,27.1,22.3,30.18,WNW,293,2.0,7.3,82,0.00,,,0.00,WUHU216HW,2013-02-09 05:03:00,
2013-02-09 00:13:00,27.1,22.3,30.18,WSW,248,0.0,6.0,82,0.00,,,0.00,WUHU216HW,2013-02-09 05:13:00,
2013-02-09 00:19:00,27.1,22.3,30.19,NW,315,5.1,5.1,82,0.00,,,0.00,WUHU216HW,2013-02-09 05:19:00,
2013-02-09 00:25:00,27.1,22.3,30.18,WSW,248,0.0,5.1,82,0.00,,,0.00,WUHU216HW,2013-02-09 05:25:00,
2013-02-09 00:31:00,27.1,22.3,30.19,WSW,248,5.1,5.1,82,0.00,,,0.00,WUHU216HW,2013-02-09 05:31:00,
2013-02-09 00:36:00,27.1,22.3,30.19,West,270,5.8,5.8,82,0.00,,,0.00,WUHU216HW,2013-02-09 05:36:00,
2013-02-09 00:42:00,27.1,22.3,30.19,NW,315,5.5,5.8,82,0.00,,,0.00,WUHU216HW,2013-02-09 05:42:00,
2013-02-09 00:48:00,27.1,22.3,30.19,WNW,293,0.0,5.5,82,0.00,,,0.00,WUHU216HW,2013-02-09 05:48:00,
2013-02-09 00:53:00,27.1,22.3,30.19,WNW,293,3.8,5.1,82,0.00,,,0.00,WUHU216HW,2013-02-09 05:53:00,
2013-02-09 00:58:00,27.1,22.6,30.20,WNW,293,0.0,3.8,83,0.00,,,0.00,WUHU216HW,2013-02-09 05:58:00,
2013-02-09 01:08:00,27.1,22.6,30.20,SW,225,6.4,6.4,83,0.00,,,0.00,WUHU216HW,2013-02-09 06:08:00,
2013-02-09 01:14:00,27.1,22.6,30.21,NW,315,4.9,6.4,83,0.00,,,0.00,WUHU216HW,2013-02-09 06:14:00,
2013-02-09 01:19:00,27.1,22.6,30.21,West,270,0.0,4.9,83,0.00,,,0.00,WUHU216HW,2013-02-09 06:19:00,
2013-02-09 01:24:00,27.1,22.6,30.21,West,270,0.0,4.9,83,0.00,,,0.00,WUHU216HW,2013-02-09 06:24:00,
2013-02-09 01:30:00,27.1,22.6,30.21,West,270,4.4,4.4,83,0.00,,,0.00,WUHU216HW,2013-02-09 06:30:00,
2013-02-09 01:35:00,27.1,22.6,30.21,WNW,293,4.4,5.8,83,0.00,,,0.00,WUHU216HW,2013-02-09 06:35:00,
2013-02-09 01:41:00,27.1,22.6,30.21,WNW,293,3.8,5.8,83,0.00,,,0.00,WUHU216HW,2013-02-09 06:41:00,
2013-02-09 01:47:00,27.3,22.7,30.22,NW,315,7.1,7.1,83,0.00,,,0.00,WUHU216HW,2013-02-09 06:47:00,
2013-02-09 01:52:00,27.1,22.6,30.22,NW,315,2.4,7.1,83,0.00,,,0.00,WUHU216HW,2013-02-09 06:52:00,
2013-02-09 01:57:00,27.3,22.4,30.22,NW,315,0.2,7.1,82,0.00,,,0.00,WUHU216HW,2013-02-09 06:57:00,
2013-02-09 02:03:00,27.3,22.4,30.23,West,270,7.8,7.8,82,0.00,,,0.00,WUHU216HW,2013-02-09 07:03:00,
2013-02-09 02:09:00,27.3,22.4,30.23,WNW,293,0.8,7.8,82,0.00,,,0.00,WUHU216HW,2013-02-09 07:09:00,
2013-02-09 02:15:00,27.3,22.4,30.23,NNW,338,0.0,6.2,82,0.00,,,0.00,WUHU216HW,2013-02-09 07:15:00,
2013-02-09 02:21:00,27.3,22.4,30.23,NNW,338,4.6,5.8,82,0.00,,,0.00,WUHU216HW,2013-02-09 07:21:00,
2013-02-09 02:26:00,27.3,22.4,30.23,NW,315,0.0,7.3,82,0.00,,,0.00,WUHU216HW,2013-02-09 07:26:00,
2013-02-09 02:32:00,27.3,22.4,30.23,NW,315,4.9,7.3,82,0.00,,,0.00,WUHU216HW,2013-02-09 07:32:00,
2013-02-09 02:38:00,27.3,22.2,30.24,West,270,2.9,6.9,81,0.00,,,0.00,WUHU216HW,2013-02-09 07:38:00,
2013-02-09 02:43:00,27.3,22.2,30.24,NW,315,2.6,6.9,81,0.00,,,0.00,WUHU216HW,2013-02-09 07:43:00,
2013-02-09 02:49:00,27.3,22.2,30.24,NW,315,6.0,7.8,81,0.00,,,0.00,WUHU216HW,2013-02-09 07:49:00,
2013-02-09 02:54:00,27.3,22.2,30.25,NW,315,9.8,9.8,81,0.00,,,0.00,WUHU216HW,2013-02-09 07:54:00,
2013-02-09 03:00:00,27.1,22.0,30.25,NNW,338,10.7,10.7,81,0.00,,,0.00,WUHU216HW,2013-02-09 08:00:00,
2013-02-09 03:06:00,27.1,21.7,30.25,West,270,5.8,10.7,80,0.00,,,0.00,WUHU216HW,2013-02-09 08:06:00,
2013-02-09 03:12:00,27.1,21.7,30.26,NW,315,7.1,8.7,80,0.00,,,0.00,WUHU216HW,2013-02-09 08:12:00,
2013-02-09 03:17:00,26.9,21.2,30.26,NNW,338,10.9,10.9,79,0.00,,,0.00,WUHU216HW,2013-02-09 08:17:00,
2013-02-09 03:23:00,26.7,21.0,30.26,West,270,5.1,10.9,79,0.00,,,0.00,WUHU216HW,2013-02-09 08:23:00,
2013-02-09 03:29:00,26.6,20.8,30.26,North,0,6.2,8.5,79,0.00,,,0.00,WUHU216HW,2013-02-09 08:29:00,
2013-02-09 03:35:00,26.4,20.7,30.27,North,0,3.3,7.1,79,0.00,,,0.00,WUHU216HW,2013-02-09 08:35:00,
2013-02-09 03:41:00,26.4,20.7,30.27,NNW,338,2.9,5.5,79,0.00,,,0.00,WUHU216HW,2013-02-09 08:41:00,
2013-02-09 03:46:00,26.2,20.2,30.27,NNW,338,6.0,6.0,78,0.00,,,0.00,WUHU216HW,2013-02-09 08:46:00,
2013-02-09 03:51:00,26.0,20.2,30.27,NW,315,8.7,8.7,78,0.00,,,0.00,WUHU216HW,2013-02-09 08:51:00,
2013-02-09 03:57:00,25.8,19.9,30.27,NNW,338,3.8,8.7,78,0.00,,,0.00,WUHU216HW,2013-02-09 08:57:00,
2013-02-09 04:03:00,25.7,19.7,30.27,NNE,23,0.0,6.4,78,0.00,,,0.00,WUHU216HW,2013-02-09 09:03:00,
2013-02-09 04:08:00,25.7,19.7,30.28,NNW,338,0.0,1.5,78,0.00,,,0.00,WUHU216HW,2013-02-09 09:08:00,
2013-02-09 04:13:00,25.5,19.5,30.28,North,0,0.0,9.8,78,0.00,,,0.00,WUHU216HW,2013-02-09 09:13:00,
2013-02-09 04:19:00,25.5,19.5,30.28,NE,45,0.0,9.8,78,0.00,,,0.00,WUHU216HW,2013-02-09 09:19:00,
2013-02-09 04:25:00,25.3,19.4,30.28,North,0,0.0,6.7,78,0.00,,,0.00,WUHU216HW,2013-02-09 09:25:00,
2013-02-09 04:31:00,25.3,19.4,30.28,North,0,0.0,3.5,78,0.00,,,0.00,WUHU216HW,2013-02-09 09:31:00,
2013-02-09 04:36:00,25.3,19.4,30.28,NNW,338,0.0,2.9,78,0.00,,,0.00,WUHU216HW,2013-02-09 09:36:00,
2013-02-09 04:41:00,25.1,19.5,30.28,North,0,0.0,6.9,79,0.00,,,0.00,WUHU216HW,2013-02-09 09:41:00,
2013-02-09 04:46:00,25.1,19.5,30.29,NW,315,0.0,6.9,79,0.00,,,0.00,WUHU216HW,2013-02-09 09:46:00,
2013-02-09 04:56:00,25.1,19.5,30.29,WNW,293,0.0,0.0,79,0.00,,,0.00,WUHU216HW,2013-02-09 09:56:00,
2013-02-09 05:07:00,24.9,19.4,30.30,NNW,338,0.0,0.0,79,0.00,,,0.00,WUHU216HW,2013-02-09 10:07:00,
2013-02-09 05:12:00,24.9,19.4,30.30,NNW,338,0.0,0.0,79,0.00,,,0.00,WUHU216HW,2013-02-09 10:12:00,
2013-02-09 05:18:00,24.9,19.7,30.30,WNW,293,0.0,0.0,80,0.00,,,0.00,WUHU216HW,2013-02-09 10:18:00,
2013-02-09 05:24:00,24.9,19.7,30.30,WNW,293,0.0,0.0,80,0.00,,,0.00,WUHU216HW,2013-02-09 10:24:00,
2013-02-09 05:29:00,24.9,19.7,30.30,WNW,293,0.0,0.0,80,0.00,,,0.00,WUHU216HW,2013-02-09 10:29:00,
2013-02-09 05:34:00,24.9,19.7,30.30,WNW,293,2.6,2.6,80,0.00,,,0.00,WUHU216HW,2013-02-09 10:34:00,
2013-02-09 05:40:00,24.9,19.7,30.31,West,270,3.3,3.3,80,0.00,,,0.00,WUHU216HW,2013-02-09 10:40:00,
2013-02-09 05:46:00,24.9,19.7,30.31,WNW,293,0.0,6.0,80,0.00,,,0.00,WUHU216HW,2013-02-09 10:46:00,
2013-02-09 05:52:00,25.1,19.9,30.32,WNW,293,1.7,6.2,80,0.00,,,0.00,WUHU216HW,2013-02-09 10:52:00,
2013-02-09 05:58:00,25.1,19.9,30.32,WNW,293,2.9,6.7,80,0.00,,,0.00,WUHU216HW,2013-02-09 10:58:00,
2013-02-09 06:03:00,25.1,19.5,30.32,NNW,338,4.4,6.7,79,0.00,,,0.00,WUHU216HW,2013-02-09 11:03:00,
2013-02-09 06:08:00,25.1,19.5,30.33,WNW,293,10.5,10.5,79,0.00,,,0.00,WUHU216HW,2013-02-09 11:08:00,
2013-02-09 06:14:00,25.1,19.5,30.33,WNW,293,0.0,10.5,79,0.00,,,0.00,WUHU216HW,2013-02-09 11:14:00,
2013-02-09 06:19:00,25.1,19.2,30.33,NW,315,3.8,5.1,78,0.00,,,0.00,WUHU216HW,2013-02-09 11:19:00,
2013-02-09 06:24:00,25.1,19.2,30.34,WNW,293,4.2,4.2,78,0.00,,,0.00,WUHU216HW,2013-02-09 11:24:00,
2013-02-09 06:30:00,25.1,19.2,30.34,WNW,293,6.0,6.0,78,0.00,,,0.00,WUHU216HW,2013-02-09 11:30:00,
2013-02-09 06:35:00,25.1,19.2,30.34,NNW,338,4.0,6.0,78,0.00,,,0.00,WUHU216HW,2013-02-09 11:35:00,
2013-02-09 06:40:00,25.1,19.2,30.34,WNW,293,6.2,7.6,78,0.00,,,0.00,WUHU216HW,2013-02-09 11:40:00,
2013-02-09 06:46:00,25.1,19.2,30.35,NNW,338,6.2,7.6,78,0.00,,,0.00,WUHU216HW,2013-02-09 11:46:00,
2013-02-09 06:52:00,25.1,19.2,30.35,WNW,293,0.0,6.2,78,0.00,,,0.00,WUHU216HW,2013-02-09 11:52:00,
2013-02-09 06:58:00,25.1,19.2,30.35,NW,315,4.0,4.4,78,0.00,,,0.00,WUHU216HW,2013-02-09 11:58:00,
2013-02-09 07:04:00,25.3,19.4,30.35,NW,315,5.8,5.8,78,0.00,,,0.00,WUHU216HW,2013-02-09 12:04:00,
2013-02-09 07:09:00,25.1,19.2,30.35,West,270,2.0,5.8,78,0.00,,,0.00,WUHU216HW,2013-02-09 12:09:00,
2013-02-09 07:14:00,25.3,19.4,30.35,West,270,0.0,5.8,78,0.00,,,0.00,WUHU216HW,2013-02-09 12:14:00,
2013-02-09 07:19:00,25.1,19.2,30.35,NW,315,4.2,4.2,78,0.00,,,0.00,WUHU216HW,2013-02-09 12:19:00,
2013-02-09 07:24:00,25.1,19.2,30.35,WNW,293,0.0,4.2,78,0.00,,,0.00,WUHU216HW,2013-02-09 12:24:00,
2013-02-09 07:30:00,25.1,19.2,30.35,NW,315,0.0,4.2,78,0.00,,,0.00,WUHU216HW,2013-02-09 12:30:00,
2013-02-09 07:35:00,25.3,19.4,30.36,NNW,338,0.0,0.8,78,0.00,,,0.00,WUHU216HW,2013-02-09 12:35:00,
2013-02-09 07:41:00,25.3,19.4,30.36,NW,315,0.4,5.3,78,0.00,,,0.00,WUHU216HW,2013-02-09 12:41:00,
2013-02-09 07:46:00,25.3,19.4,30.36,NW,315,1.5,5.3,78,0.00,,,0.00,WUHU216HW,2013-02-09 12:46:00,
2013-02-09 07:51:00,25.3,19.4,30.36,NW,315,7.3,7.3,78,0.00,,,0.00,WUHU216HW,2013-02-09 12:51:00,
2013-02-09 07:56:00,25.3,19.4,30.37,NW,315,0.0,7.3,78,0.00,,,0.00,WUHU216HW,2013-02-09 12:56:00,
2013-02-09 08:01:00,25.5,19.5,30.37,WNW,293,0.0,7.3,78,0.00,,,0.00,WUHU216HW,2013-02-09 13:01:00,
2013-02-09 08:07:00,25.5,19.5,30.37,NNW,338,0.0,0.0,78,0.00,,,0.00,WUHU216HW,2013-02-09 13:07:00,
2013-02-09 08:12:00,25.5,19.5,30.37,NW,315,2.2,2.2,78,0.00,,,0.00,WUHU216HW,2013-02-09 13:12:00,
2013-02-09 08:17:00,25.5,19.5,30.38,NNW,338,0.0,2.2,78,0.00,,,0.00,WUHU216HW,2013-02-09 13:17:00,
2013-02-09 08:23:00,25.7,19.7,30.38,North,0,6.7,6.7,78,0.00,,,0.00,WUHU216HW,2013-02-09 13:23:00,
2013-02-09 08:28:00,25.7,19.7,30.38,NNW,338,0.0,6.7,78,0.00,,,0.00,WUHU216HW,2013-02-09 13:28:00,
2013-02-09 08:34:00,25.7,19.7,30.38,NW,315,0.0,0.0,78,0.00,,,0.00,WUHU216HW,2013-02-09 13:34:00,
2013-02-09 08:40:00,25.8,19.9,30.38,NW,315,5.5,5.5,78,0.00,,,0.00,WUHU216HW,2013-02-09 13:40:00,
2013-02-09 08:45:00,26.2,20.2,30.38,NW,315,5.3,5.5,78,0.00,,,0.00,WUHU216HW,2013-02-09 13:45:00,
2013-02-09 08:51:00,26.2,20.2,30.39,NNW,338,0.0,5.8,78,0.00,,,0.00,WUHU216HW,2013-02-09 13:51:00,
2013-02-09 08:56:00,26.4,20.1,30.39,NNW,338,0.0,5.8,77,0.00,,,0.00,WUHU216HW,2013-02-09 13:56:00,
2013-02-09 09:02:00,26.6,20.2,30.39,West,270,0.0,6.4,77,0.00,,,0.00,WUHU216HW,2013-02-09 14:02:00,
2013-02-09 09:08:00,26.7,20.4,30.39,NW,315,4.2,6.4,77,0.00,,,0.00,WUHU216HW,2013-02-09 14:08:00,
2013-02-09 09:13:00,26.9,20.6,30.39,NNW,338,0.0,4.9,77,0.00,,,0.00,WUHU216HW,2013-02-09 14:13:00,
2013-02-09 09:19:00,27.1,20.6,30.39,North,0,5.3,6.0,77,0.00,,,0.00,WUHU216HW,2013-02-09 14:19:00,
2013-02-09 09:24:00,26.9,20.6,30.39,NW,315,0.0,6.0,77,0.00,,,0.00,WUHU216HW,2013-02-09 14:24:00,
2013-02-09 09:29:00,27.1,20.5,30.39,NNW,338,4.9,5.5,76,0.00,,,0.00,WUHU216HW,2013-02-09 14:29:00,
2013-02-09 09:34:00,27.3,20.6,30.39,NNW,338,4.2,6.4,76,0.00,,,0.00,WUHU216HW,2013-02-09 14:34:00,
2013-02-09 09:40:00,27.3,20.6,30.39,NNE,23,1.1,6.4,76,0.00,,,0.00,WUHU216HW,2013-02-09 14:40:00,
2013-02-09 09:45:00,27.6,21.0,30.40,NW,315,0.0,4.2,76,0.00,,,0.00,WUHU216HW,2013-02-09 14:45:00,
2013-02-09 09:50:00,28.0,21.4,30.40,NW,315,6.9,6.9,76,0.00,,,0.00,WUHU216HW,2013-02-09 14:50:00,
2013-02-09 09:55:00,28.2,21.2,30.39,NNW,338,5.3,6.9,75,0.00,,,0.00,WUHU216HW,2013-02-09 14:55:00,
2013-02-09 10:01:00,28.2,21.2,30.40,NW,315,0.0,5.5,75,0.00,,,0.00,WUHU216HW,2013-02-09 15:01:00,
2013-02-09 10:06:00,28.5,21.1,30.40,West,270,0.0,5.5,74,0.00,,,0.00,WUHU216HW,2013-02-09 15:06:00,
2013-02-09 10:12:00,28.2,20.9,30.40,WNW,293,4.4,6.2,74,0.00,,,0.00,WUHU216HW,2013-02-09 15:12:00,
2013-02-09 10:17:00,28.4,21.1,30.40,NW,315,3.1,6.2,74,0.00,,,0.00,WUHU216HW,2013-02-09 15:17:00,
2013-02-09 10:23:00,28.5,21.3,30.40,NW,315,0.0,4.9,74,0.00,,,0.00,WUHU216HW,2013-02-09 15:23:00,
2013-02-09 10:28:00,29.1,21.5,30.40,WNW,293,0.0,4.9,73,0.00,,,0.00,WUHU216HW,2013-02-09 15:28:00,
2013-02-09 10:33:00,29.1,21.5,30.41,West,270,0.0,4.6,73,0.00,,,0.00,WUHU216HW,2013-02-09 15:33:00,
2013-02-09 10:39:00,29.3,21.3,30.41,North,0,0.0,4.6,72,0.00,,,0.00,WUHU216HW,2013-02-09 15:39:00,
2013-02-09 10:45:00,29.4,21.5,30.41,NW,315,0.0,0.0,72,0.00,,,0.00,WUHU216HW,2013-02-09 15:45:00,
2013-02-09 10:50:00,29.4,21.2,30.41,NNW,338,6.9,6.9,71,0.00,,,0.00,WUHU216HW,2013-02-09 15:50:00,
2013-02-09 10:56:00,29.8,21.5,30.41,North,0,0.0,6.9,71,0.00,,,0.00,WUHU216HW,2013-02-09 15:56:00,
2013-02-09 11:01:00,30.0,21.7,30.41,NW,315,0.0,6.9,71,0.00,,,0.00,WUHU216HW,2013-02-09 16:01:00,
2013-02-09 11:06:00,30.2,22.0,30.41,NW,315,4.2,4.2,71,0.00,,,0.00,WUHU216HW,2013-02-09 16:06:00,
2013-02-09 11:12:00,30.5,22.2,30.41,NW,315,0.0,4.2,71,0.00,,,0.00,WUHU216HW,2013-02-09 16:12:00,
2013-02-09 11:17:00,30.9,22.6,30.41,WNW,293,0.0,0.0,71,0.00,,,0.00,WUHU216HW,2013-02-09 16:17:00,
2013-02-09 11:23:00,31.6,23.0,30.41,NW,315,1.7,1.7,70,0.00,,,0.00,WUHU216HW,2013-02-09 16:23:00,
2013-02-09 11:28:00,31.8,23.1,30.41,North,0,0.0,3.3,70,0.00,,,0.00,WUHU216HW,2013-02-09 16:28:00,
2013-02-09 11:33:00,31.8,22.8,30.40,NW,315,0.8,3.3,69,0.00,,,0.00,WUHU216HW,2013-02-09 16:33:00,
2013-02-09 11:38:00,31.8,22.6,30.39,NNW,338,0.0,3.8,69,0.00,,,0.00,WUHU216HW,2013-02-09 16:38:00,
2013-02-09 11:43:00,32.1,23.1,30.39,NNW,338,0.0,3.8,69,0.00,,,0.00,WUHU216HW,2013-02-09 16:43:00,
2013-02-09 11:49:00,32.1,23.1,30.40,WNW,293,2.4,2.9,69,0.00,,,0.00,WUHU216HW,2013-02-09 16:49:00,
2013-02-09 11:54:00,32.3,22.9,30.40,SW,225,0.0,2.9,68,0.00,,,0.00,WUHU216HW,2013-02-09 16:54:00,
2013-02-09 12:00:00,32.9,23.8,30.40,West,270,0.0,2.4,69,0.00,,,0.00,WUHU216HW,2013-02-09 17:00:00,
2013-02-09 12:05:00,33.6,24.4,30.40,West,270,0.0,0.0,69,0.00,,,0.00,WUHU216HW,2013-02-09 17:05:00,
2013-02-09 12:10:00,34.3,24.8,30.40,WSW,248,0.0,0.0,68,0.00,,,0.00,WUHU216HW,2013-02-09 17:10:00,
2013-02-09 12:16:00,34.8,24.9,30.40,West,270,6.2,6.2,67,0.00,,,0.00,WUHU216HW,2013-02-09 17:16:00,
2013-02-09 12:22:00,35.0,24.8,30.40,North,0,0.0,6.2,66,0.00,,,0.00,WUHU216HW,2013-02-09 17:22:00,
2013-02-09 12:27:00,34.5,23.9,30.40,NW,315,0.0,8.7,65,0.00,,,0.00,WUHU216HW,2013-02-09 17:27:00,
2013-02-09 12:33:00,34.5,23.9,30.40,NW,315,0.0,8.7,65,0.00,,,0.00,WUHU216HW,2013-02-09 17:33:00,
2013-02-09 12:38:00,34.3,23.7,30.40,NNE,23,0.0,6.9,65,0.00,,,0.00,WUHU216HW,2013-02-09 17:38:00,
2013-02-09 12:44:00,34.1,23.5,30.39,NE,45,0.0,0.0,65,0.00,,,0.00,WUHU216HW,2013-02-09 17:44:00,
2013-02-09 12:49:00,34.3,23.7,30.39,NNW,338,0.0,0.0,65,0.00,,,0.00,WUHU216HW,2013-02-09 17:49:00,
2013-02-09 12:54:00,34.8,24.2,30.39,NW,315,0.0,0.0,65,0.00,,,0.00,WUHU216HW,2013-02-09 17:54:00,
2013-02-09 12:59:00,35.2,24.6,30.39,West,270,5.5,5.5,65,0.00,,,0.00,WUHU216HW,2013-02-09 17:59:00,
2013-02-09 13:05:00,34.8,23.9,30.39,North,0,0.0,5.5,64,0.00,,,0.00,WUHU216HW,2013-02-09 18:05:00,
2013-02-09 13:10:00,35.0,24.0,30.38,North,0,0.0,2.2,64,0.00,,,0.00,WUHU216HW,2013-02-09 18:10:00,
2013-02-09 13:15:00,35.7,24.7,30.38,North,0,1.5,1.5,64,0.00,,,0.00,WUHU216HW,2013-02-09 18:15:00,
2013-02-09 13:20:00,35.9,24.9,30.38,NW,315,0.0,1.5,64,0.00,,,0.00,WUHU216HW,2013-02-09 18:20:00,
2013-02-09 13:26:00,35.9,24.5,30.38,West,270,0.0,2.0,63,0.00,,,0.00,WUHU216HW,2013-02-09 18:26:00,
2013-02-09 13:31:00,36.1,24.7,30.38,WNW,293,3.3,3.3,63,0.00,,,0.00,WUHU216HW,2013-02-09 18:31:00,
2013-02-09 13:37:00,36.3,24.5,30.38,West,270,0.0,3.3,62,0.00,,,0.00,WUHU216HW,2013-02-09 18:37:00,
2013-02-09 13:42:00,36.3,24.5,30.37,NW,315,0.0,0.0,62,0.00,,,0.00,WUHU216HW,2013-02-09 18:42:00,
2013-02-09 13:48:00,36.3,24.1,30.37,WNW,293,0.0,8.0,61,0.00,,,0.00,WUHU216HW,2013-02-09 18:48:00,
2013-02-09 13:54:00,36.3,24.1,30.37,SW,225,6.7,8.0,61,0.00,,,0.00,WUHU216HW,2013-02-09 18:54:00,
2013-02-09 13:59:00,36.6,24.8,30.37,SW,225,0.0,6.7,62,0.00,,,0.00,WUHU216HW,2013-02-09 18:59:00,
2013-02-09 14:05:00,37.0,24.8,30.37,NW,315,8.0,8.0,61,0.00,,,0.00,WUHU216HW,2013-02-09 19:05:00,
2013-02-09 14:11:00,36.8,24.3,30.37,North,0,0.0,8.0,60,0.00,,,0.00,WUHU216HW,2013-02-09 19:11:00,
2013-02-09 14:17:00,37.0,24.4,30.36,West,270,6.0,6.0,60,0.00,,,0.00,WUHU216HW,2013-02-09 19:17:00,
2013-02-09 14:22:00,37.2,24.6,30.36,West,270,0.0,6.0,60,0.00,,,0.00,WUHU216HW,2013-02-09 19:22:00,
2013-02-09 14:28:00,37.5,24.9,30.36,WSW,248,0.0,6.0,60,0.00,,,0.00,WUHU216HW,2013-02-09 19:28:00,
2013-02-09 14:38:00,38.4,25.3,30.36,WSW,248,0.0,4.9,59,0.00,,,0.00,WUHU216HW,2013-02-09 19:38:00,
2013-02-09 14:44:00,38.4,25.3,30.36,WSW,248,0.0,0.0,59,0.00,,,0.00,WUHU216HW,2013-02-09 19:44:00,
2013-02-09 14:50:00,38.4,25.3,30.36,WSW,248,0.0,0.0,59,0.00,,,0.00,WUHU216HW,2013-02-09 19:50:00,
2013-02-09 14:55:00,38.4,25.6,30.36,WSW,248,10.9,10.9,59,0.00,,,0.00,WUHU216HW,2013-02-09 19:55:00,
2013-02-09 15:00:00,38.6,25.5,30.36,WSW,248,0.0,10.9,59,0.00,,,0.00,WUHU216HW,2013-02-09 20:00:00,
2013-02-09 15:05:00,38.8,25.2,30.36,WSW,248,0.0,10.9,58,0.00,,,0.00,WUHU216HW,2013-02-09 20:05:00,
2013-02-09 15:11:00,38.3,24.3,30.36,WSW,248,0.0,0.0,57,0.00,,,0.00,WUHU216HW,2013-02-09 20:11:00,
2013-02-09 15:16:00,38.3,24.3,30.36,WSW,248,2.6,2.6,57,0.00,,,0.00,WUHU216HW,2013-02-09 20:16:00,
2013-02-09 15:21:00,38.1,24.1,30.36,WSW,248,0.0,2.6,57,0.00,,,0.00,WUHU216HW,2013-02-09 20:21:00,
2013-02-09 15:27:00,38.1,24.1,30.37,WSW,248,0.0,0.0,57,0.00,,,0.00,WUHU216HW,2013-02-09 20:27:00,
2013-02-09 15:32:00,38.3,24.3,30.37,WSW,248,0.0,0.0,57,0.00,,,0.00,WUHU216HW,2013-02-09 20:32:00,
2013-02-09 15:38:00,38.8,24.3,30.37,WSW,248,0.0,0.0,56,0.00,,,0.00,WUHU216HW,2013-02-09 20:38:00,
2013-02-09 15:44:00,38.8,24.3,30.37,WSW,248,0.0,0.0,56,0.00,,,0.00,WUHU216HW,2013-02-09 20:44:00,
2013-02-09 15:50:00,38.8,24.3,30.37,WSW,248,0.0,0.0,56,0.00,,,0.00,WUHU216HW,2013-02-09 20:50:00,
2013-02-09 15:55:00,38.3,23.8,30.37,WSW,248,0.0,0.0,56,0.00,,,0.00,WUHU216HW,2013-02-09 20:55:00,
2013-02-09 16:00:00,38.1,23.7,30.37,WSW,248,0.0,0.0,56,0.00,,,0.00,WUHU216HW,2013-02-09 21:00:00,
2013-02-09 16:06:00,38.3,24.3,30.37,WSW,248,0.0,2.4,57,0.00,,,0.00,WUHU216HW,2013-02-09 21:06:00,
2013-02-09 16:11:00,38.4,24.4,30.38,WSW,248,0.0,2.4,57,0.00,,,0.00,WUHU216HW,2013-02-09 21:11:00,
2013-02-09 16:16:00,38.4,24.0,30.38,WSW,248,1.3,1.3,56,0.00,,,0.00,WUHU216HW,2013-02-09 21:16:00,
2013-02-09 16:22:00,38.4,24.4,30.38,WSW,248,0.0,1.3,57,0.00,,,0.00,WUHU216HW,2013-02-09 21:22:00,
2013-02-09 16:27:00,38.3,23.8,30.38,WSW,248,0.0,0.0,56,0.00,,,0.00,WUHU216HW,2013-02-09 21:27:00,
2013-02-09 16:33:00,38.1,24.1,30.38,WSW,248,0.0,0.0,57,0.00,,,0.00,WUHU216HW,2013-02-09 21:33:00,
2013-02-09 16:39:00,37.9,23.5,30.38,WNW,293,0.0,0.0,56,0.00,,,0.00,WUHU216HW,2013-02-09 21:39:00,
2013-02-09 16:44:00,37.4,23.5,30.38,West,270,0.0,0.0,57,0.00,,,0.00,WUHU216HW,2013-02-09 21:44:00,
2013-02-09 16:49:00,37.2,23.3,30.38,West,270,0.0,0.0,57,0.00,,,0.00,WUHU216HW,2013-02-09 21:49:00,
2013-02-09 16:54:00,36.6,22.8,30.38,West,270,0.0,0.0,57,0.00,,,0.00,WUHU216HW,2013-02-09 21:54:00,
2013-02-09 16:59:00,36.3,22.5,30.38,West,270,0.0,0.0,57,0.00,,,0.00,WUHU216HW,2013-02-09 21:59:00,
2013-02-09 17:04:00,35.7,22.0,30.39,West,270,0.0,0.0,57,0.00,,,0.00,WUHU216HW,2013-02-09 22:04:00,
2013-02-09 17:09:00,35.4,21.7,30.38,WNW,293,0.0,0.0,57,0.00,,,0.00,WUHU216HW,2013-02-09 22:09:00,
2013-02-09 17:14:00,34.8,21.1,30.39,WSW,248,0.0,0.0,57,0.00,,,0.00,WUHU216HW,2013-02-09 22:14:00,
2013-02-09 17:19:00,34.5,21.2,30.39,WSW,248,0.0,0.0,58,0.00,,,0.00,WUHU216HW,2013-02-09 22:19:00,
2013-02-09 17:24:00,34.3,21.0,30.38,WSW,248,0.0,0.0,58,0.00,,,0.00,WUHU216HW,2013-02-09 22:24:00,
2013-02-09 17:30:00,33.9,20.6,30.39,WSW,248,0.0,0.0,58,0.00,,,0.00,WUHU216HW,2013-02-09 22:30:00,
2013-02-09 17:35:00,33.6,20.3,30.39,WSW,248,0.0,0.0,58,0.00,,,0.00,WUHU216HW,2013-02-09 22:35:00,
2013-02-09 17:41:00,33.0,20.3,30.39,WSW,248,0.0,0.0,59,0.00,,,0.00,WUHU216HW,2013-02-09 22:41:00,
2013-02-09 17:46:00,32.7,19.9,30.39,WSW,248,0.0,0.0,59,0.00,,,0.00,WUHU216HW,2013-02-09 22:46:00,
2013-02-09 17:52:00,32.1,19.4,30.39,WSW,248,0.0,0.0,59,0.00,,,0.00,WUHU216HW,2013-02-09 22:52:00,
2013-02-09 17:57:00,31.8,19.5,30.39,WSW,248,0.0,0.0,60,0.00,,,0.00,WUHU216HW,2013-02-09 22:57:00,
2013-02-09 18:03:00,31.4,19.2,30.38,WSW,248,0.0,0.0,60,0.00,,,0.00,WUHU216HW,2013-02-09 23:03:00,
2013-02-09 18:09:00,30.9,19.0,30.38,WSW,248,0.0,0.0,61,0.00,,,0.00,WUHU216HW,2013-02-09 23:09:00,
2013-02-09 18:15:00,30.3,18.8,30.38,WSW,248,0.0,0.0,62,0.00,,,0.00,WUHU216HW,2013-02-09 23:15:00,
2013-02-09 18:20:00,30.0,18.5,30.38,WSW,248,0.0,0.0,62,0.00,,,0.00,WUHU216HW,2013-02-09 23:20:00,
2013-02-09 18:26:00,29.6,18.5,30.38,WSW,248,0.0,0.0,63,0.00,,,0.00,WUHU216HW,2013-02-09 23:26:00,
2013-02-09 18:31:00,29.3,18.2,30.38,WSW,248,0.0,0.0,63,0.00,,,0.00,WUHU216HW,2013-02-09 23:31:00,
2013-02-09 18:37:00,29.1,18.0,30.38,WSW,248,0.0,0.0,63,0.00,,,0.00,WUHU216HW,2013-02-09 23:37:00,
2013-02-09 18:43:00,28.9,18.2,30.38,WSW,248,0.0,0.0,64,0.00,,,0.00,WUHU216HW,2013-02-09 23:43:00,
2013-02-09 18:48:00,28.7,18.1,30.38,WSW,248,0.0,0.0,64,0.00,,,0.00,WUHU216HW,2013-02-09 23:48:00,
2013-02-09 18:54:00,28.4,18.1,30.38,WSW,248,0.0,0.0,65,0.00,,,0.00,WUHU216HW,2013-02-09 23:54:00,
2013-02-09 18:59:00,28.0,17.7,30.38,WSW,248,0.0,0.0,65,0.00,,,0.00,WUHU216HW,2013-02-09 23:59:00,
2013-02-09 19:05:00,28.0,17.7,30.38,WSW,248,0.0,0.0,65,0.00,,,0.00,WUHU216HW,2013-02-10 00:05:00,
2013-02-09 19:10:00,27.6,17.4,30.38,WSW,248,0.0,0.0,65,0.00,,,0.00,WUHU216HW,2013-02-10 00:10:00,
2013-02-09 19:15:00,27.5,17.6,30.38,WSW,248,0.0,0.0,66,0.00,,,0.00,WUHU216HW,2013-02-10 00:15:00,
2013-02-09 19:21:00,27.1,17.2,30.38,WSW,248,0.0,0.0,66,0.00,,,0.00,WUHU216HW,2013-02-10 00:21:00,
2013-02-09 19:26:00,26.9,17.4,30.38,WSW,248,0.0,0.0,67,0.00,,,0.00,WUHU216HW,2013-02-10 00:26:00,
2013-02-09 19:31:00,26.7,17.2,30.38,WSW,248,0.0,0.0,67,0.00,,,0.00,WUHU216HW,2013-02-10 00:31:00,
2013-02-09 19:36:00,26.6,17.0,30.39,WSW,248,0.0,0.0,67,0.00,,,0.00,WUHU216HW,2013-02-10 00:36:00,
2013-02-09 19:42:00,26.4,16.8,30.38,WSW,248,0.0,0.0,67,0.00,,,0.00,WUHU216HW,2013-02-10 00:42:00,
2013-02-09 19:53:00,25.8,16.7,30.38,WSW,248,0.0,0.0,68,0.00,,,0.00,WUHU216HW,2013-02-10 00:53:00,
2013-02-09 19:59:00,25.5,16.3,30.38,WSW,248,0.0,0.0,68,0.00,,,0.00,WUHU216HW,2013-02-10 00:59:00,
2013-02-09 20:05:00,25.5,16.3,30.38,WSW,248,0.0,0.0,68,0.00,,,0.00,WUHU216HW,2013-02-10 01:05:00,
2013-02-09 20:11:00,25.1,16.3,30.38,WSW,248,0.0,0.0,69,0.00,,,0.00,WUHU216HW,2013-02-10 01:11:00,
2013-02-09 20:21:00,24.6,16.1,30.38,WSW,248,0.0,0.0,70,0.00,,,0.00,WUHU216HW,2013-02-10 01:21:00,
2013-02-09 20:26:00,24.6,16.1,30.38,WSW,248,0.0,0.0,70,0.00,,,0.00,WUHU216HW,2013-02-10 01:26:00,
2013-02-09 20:31:00,24.4,16.0,30.38,WSW,248,0.0,0.0,70,0.00,,,0.00,WUHU216HW,2013-02-10 01:31:00,
2013-02-09 20:37:00,24.0,15.6,30.38,WSW,248,0.0,0.0,70,0.00,,,0.00,WUHU216HW,2013-02-10 01:37:00,
2013-02-09 20:42:00,23.9,15.5,30.38,WSW,248,0.0,0.0,70,0.00,,,0.00,WUHU216HW,2013-02-10 01:42:00,
2013-02-09 20:48:00,23.5,15.6,30.38,WSW,248,0.0,0.0,71,0.00,,,0.00,WUHU216HW,2013-02-10 01:48:00,
2013-02-09 20:54:00,23.5,15.5,30.38,WSW,248,0.0,0.0,71,0.00,,,0.00,WUHU216HW,2013-02-10 01:54:00,
2013-02-09 21:00:00,23.3,15.3,30.38,WSW,248,0.0,0.0,71,0.00,,,0.00,WUHU216HW,2013-02-10 02:00:00,
2013-02-09 21:10:00,22.8,15.1,30.39,WSW,248,0.0,0.0,72,0.00,,,0.00,WUHU216HW,2013-02-10 02:10:00,
2013-02-09 21:15:00,22.8,15.1,30.39,WSW,248,0.0,0.0,72,0.00,,,0.00,WUHU216HW,2013-02-10 02:15:00,
2013-02-09 21:20:00,22.8,15.1,30.39,WSW,248,0.0,0.0,72,0.00,,,0.00,WUHU216HW,2013-02-10 02:20:00,
2013-02-09 21:25:00,22.4,14.7,30.39,WSW,248,0.0,0.0,72,0.00,,,0.00,WUHU216HW,2013-02-10 02:25:00,
2013-02-09 21:30:00,22.2,14.9,30.38,WSW,248,0.0,0.0,73,0.00,,,0.00,WUHU216HW,2013-02-10 02:30:00,
2013-02-09 21:36:00,21.9,14.5,30.39,WSW,248,0.0,0.0,73,0.00,,,0.00,WUHU216HW,2013-02-10 02:36:00,
2013-02-09 21:41:00,21.9,14.5,30.39,WSW,248,0.0,0.0,73,0.00,,,0.00,WUHU216HW,2013-02-10 02:41:00,
2013-02-09 21:47:00,21.7,14.6,30.39,WSW,248,0.0,0.0,74,0.00,,,0.00,WUHU216HW,2013-02-10 02:47:00,
2013-02-09 21:52:00,21.7,14.6,30.40,WSW,248,0.0,0.0,74,0.00,,,0.00,WUHU216HW,2013-02-10 02:52:00,
2013-02-09 21:58:00,21.5,14.5,30.40,WSW,248,0.0,0.0,74,0.00,,,0.00,WUHU216HW,2013-02-10 02:58:00,
2013-02-09 22:03:00,21.3,14.3,30.40,WSW,248,0.0,0.0,74,0.00,,,0.00,WUHU216HW,2013-02-10 03:03:00,
2013-02-09 22:09:00,21.3,14.3,30.40,WSW,248,0.0,0.0,74,0.00,,,0.00,WUHU216HW,2013-02-10 03:09:00,
2013-02-09 22:14:00,21.0,14.2,30.40,WSW,248,0.0,0.0,75,0.00,,,0.00,WUHU216HW,2013-02-10 03:14:00,
2013-02-09 22:20:00,21.0,14.2,30.40,WSW,248,0.0,0.0,75,0.00,,,0.00,WUHU216HW,2013-02-10 03:20:00,
2013-02-09 22:26:00,20.8,14.0,30.39,WSW,248,0.0,0.0,75,0.00,,,0.00,WUHU216HW,2013-02-10 03:26:00,
2013-02-09 22:32:00,20.4,13.7,30.39,WSW,248,0.0,0.0,75,0.00,,,0.00,WUHU216HW,2013-02-10 03:32:00,
2013-02-09 22:37:00,20.4,13.7,30.39,WSW,248,0.0,0.0,75,0.00,,,0.00,WUHU216HW,2013-02-10 03:37:00,
2013-02-09 22:42:00,20.3,13.8,30.40,WSW,248,0.0,0.0,76,0.00,,,0.00,WUHU216HW,2013-02-10 03:42:00,
2013-02-09 22:48:00,20.3,13.6,30.40,WSW,248,0.0,0.0,76,0.00,,,0.00,WUHU216HW,2013-02-10 03:48:00,
2013-02-09 22:54:00,20.1,13.6,30.39,WSW,248,0.0,0.0,76,0.00,,,0.00,WUHU216HW,2013-02-10 03:54:00,
2013-02-09 23:00:00,19.7,13.3,30.39,WSW,248,0.0,0.0,76,0.00,,,0.00,WUHU216HW,2013-02-10 04:00:00,
2013-02-09 23:05:00,19.5,13.1,30.39,WSW,248,0.0,0.0,76,0.00,,,0.00,WUHU216HW,2013-02-10 04:05:00,
2013-02-09 23:11:00,19.5,13.1,30.39,WSW,248,0.0,0.0,76,0.00,,,0.00,WUHU216HW,2013-02-10 04:11:00,
2013-02-09 23:17:00,19.2,13.0,30.38,WSW,248,0.0,0.0,77,0.00,,,0.00,WUHU216HW,2013-02-10 04:17:00,
2013-02-09 23:22:00,19.2,13.0,30.38,WSW,248,0.0,0.0,77,0.00,,,0.00,WUHU216HW,2013-02-10 04:22:00,
2013-02-09 23:27:00,19.0,12.9,30.38,WSW,248,0.0,0.0,77,0.00,,,0.00,WUHU216HW,2013-02-10 04:27:00,
2013-02-09 23:33:00,19.0,12.9,30.38,WSW,248,0.0,0.0,77,0.00,,,0.00,WUHU216HW,2013-02-10 04:33:00,
2013-02-09 23:39:00,18.8,12.7,30.38,WSW,248,0.0,0.0,77,0.00,,,0.00,WUHU216HW,2013-02-10 04:39:00,
2013-02-09 23:44:00,18.6,12.8,30.38,WSW,248,0.0,0.0,78,0.00,,,0.00,WUHU216HW,2013-02-10 04:44:00,
2013-02-09 23:49:00,18.6,12.8,30.38,WSW,248,0.0,0.0,78,0.00,,,0.00,WUHU216HW,2013-02-10 04:49:00,
2013-02-09 23:55:00,18.5,12.6,30.38,WSW,248,0.0,0.0,78,0.00,,,0.00,WUHU216HW,2013-02-10 04:55:00,